Regional Weather Roundup
Issued by NWS

Home | Current Version | Previous Version | Graphics & Text | Print | Product List | Glossary On
Versions: 1 2 3 4 5 6 7 8 9 10 11 12 13 14 15 16 17 18 19 20 21 22 23 24 25 26 27
000
ASUS45 KTFX 202210
RWRMT
MONTANA REGIONAL WEATHER ROUNDUP
NATIONAL WEATHER SERVICE GREAT FALLS MT
300 PM MST MON FEB 20 2017

NOTE: "FAIR" INDICATES FEW OR NO CLOUDS BELOW 12000 FEET WITH NO
SIGNIFICANT WEATHER AND/OR OBSTRUCTIONS TO VISIBILITY.

MTZ001>007-043-202300-
WEST OF THE DIVIDE

CITY           SKY/WX    TMP DP  RH WIND       PRES   REMARKS
KALISPELL      CLOUDY    38  34  85 CALM      29.56F
MISSOULA       RAIN      36  34  92 CALM      29.63F FOG
BUTTE          CLOUDY    42  29  59 S20       29.62F
MULLAN PASS    SNOW      31  31 100 S8        29.52R VSB 1/2 WCI  23
ANACONDA         N/A     45  34  65 S10G18    29.63S
DEER LODGE       N/A     43  34  70 S13G18    29.61S
EUREKA           N/A     37  34  87 CALM      29.55S
HAMILTON         N/A     45  37  76 SE12G18   29.59F
LIBBY            N/A     34  34 100 CALM      29.53F
PLAINS           N/A     36  32  85 MISG      29.62F
RONAN            N/A     39  35  85 E2        29.65F
$$

MTZ008-052>055-202300-
SOUTHWEST MONTANA

CITY           SKY/WX    TMP DP  RH WIND       PRES   REMARKS
BOZEMAN        CLOUDY    52  36  54 SW17      29.63S
DILLON         CLOUDY    47  28  47 S22G29    29.65R
W YELLOWSTONE  LGT SNOW  32  32 100 SW12      29.83R WCI  23
ENNIS          MOSUNNY   46  30  53 S36G49    29.74R
THREE FORKS      N/A     53  53 100 S29       29.65R
TWIN BRIDGES     N/A     48  27  44 S25       29.69R
$$

MTZ009-010-012-014-046-048-049-054-202300-
EAST SLOPES AND CENTRAL MONTANA

CITY           SKY/WX    TMP DP  RH WIND       PRES   REMARKS
CUT BANK       CLOUDY    45  27  49 S13       29.51S
GREAT FALLS    CLOUDY    51  32  48 S21G26    29.53S
MALMSTROM AFB  CLOUDY    49  32  53 S28       29.53F
HELENA         CLOUDY    52  33  48 S9G17     29.56S
AUGUSTA        LGT RAIN  39  36  89 NW15G24   29.55R WCI  31
BOWMANS CRNR     N/A     43  33  66 S23G31    29.50F
CHOTEAU          N/A     43  37  81 SW10G16   29.56R FOG
CONRAD           N/A     48  40  74 S14       29.58R
POWER          PTSUNNY   48  33  54 SW18      29.52S
RAYNESFORD     PTSUNNY   47  31  53 SW18G31   29.55F
ULM            PTSUNNY   50  34  54 MISG      29.53F
$$

MTZ011-013-016-021-045-047-050-051-202300-
NORTH CENTRAL MONTANA

CITY           SKY/WX    TMP DP  RH WIND       PRES   REMARKS
HAVRE          CLOUDY    49  27  42 E9        29.56F
LEWISTOWN      CLOUDY    48  29  47 SW20G30   29.60F
N BAR RANCH      N/A     48  25  40 SW16      29.65F
CHINOOK          N/A     52  25  35 E6        29.57F
DENTON         LGT RAIN  47  36  63 S21G35    29.55R
FORT BENTON      N/A     54  25  32 MISG      29.55S
GEYSER         PTSUNNY   47  31  53 SW18      29.56S
GRASS RANGE    CLOUDY    50  24  36 S14       29.57S
JUDITH GAP     PTSUNNY   42  32  68 SW18G24   29.62F
ROY            PTSUNNY   55  26  32 MISG      29.57F
STANFORD         N/A     46  35  66 SW21G28   29.58F
WINIFRED       LGT RAIN  51  29  42 SW26G40   29.57S
$$

MTZ017>020-022>027-061-062-202300-
NORTHEAST MONTANA

CITY           SKY/WX    TMP DP  RH WIND       PRES   REMARKS
GLASGOW        SUNNY     52  21  29 VRB3      29.63F
JORDAN           N/A     57  26  30 S14G21    29.64F
SIDNEY         SUNNY     56  24  29 W16       29.69F
WOLF POINT     SUNNY     50  28  42 CALM      29.66F
PLENTYWOOD       N/A     48  25  40 SW9       29.67S
POPLAR           N/A     46  30  53 CALM      29.68F
SCOBEY           N/A     49  21  33 SW10      29.67S
$$

MTZ028>42-056>058-202300-
SOUTHCENTRAL AND SOUTHEAST MONTANA

CITY           SKY/WX    TMP DP  RH WIND       PRES   REMARKS
BAKER          SUNNY     55  22  27 W9        29.73F
BILLINGS       CLOUDY    54  26  34 SW17G24   29.63F
LIVINGSTON     CLOUDY    51  28  41 SW39G56   29.61S
MILES CITY     SUNNY     58  25  28 S10       29.68F
BIG TIMBER     CLOUDY    45  27  49 SE6       29.66S
EKALAKA          N/A     54  20  26 S6        29.75F
FORSYTH          N/A     59  25  27 SW7       29.67S
HARLOWTON        N/A     48  29  48 W7        29.63F
LAUREL           N/A     52  25  35 S5        29.68F
$$

REGIONAL REPORTS...DAKOTAS

CITY           SKY/WX    TMP DP  RH WIND       PRES   REMARKS
WILLISTON      SUNNY     47  30  51 W10       29.71R
MINOT          SUNNY     48  36  63 W16       29.67R
DICKINSON      SUNNY     53  25  33 W17       29.73R
BEACH            N/A    N/A N/A N/A MISG        N/A
CROSBY           N/A     45  37  76 SW10      29.69R
TIOGA            N/A     41  41 100 SW10      29.70S
WATFORD CITY     N/A     46  28  49 W8        29.72R
BISMARCK       SUNNY     51  36  56 W12       29.73R
GRAND FORKS    LGT RAIN  37  32  82 W8        29.64R WCI  31
FARGO          CLOUDY    39  37  92 NW14      29.66R WCI  31
BUFFALO SD       N/A     59  19  21 W20       29.71F
RAPID CITY     SUNNY     64  15  15 NW12      29.81S
$$

REGIONAL REPORTS...WYOMING/IDAHO/WASHINGTON

CITY           SKY/WX    TMP DP  RH WIND       PRES   REMARKS
GILLETTE       SUNNY     59  24  26 SW25      29.76F
SHERIDAN       MOSUNNY   54  26  34 E10       29.70F
BUFFALO WY     SUNNY     61  19  19 SW20G28   29.74F
CODY           CLOUDY    50  29  44 SW22G29   29.77S
YELLOWSTONE LA   N/A     31  30  96 VRB3      29.85F
IDAHO FALLS    LGT RAIN  40  37  89 S18G30    29.90R
SALMON         CLOUDY    45  36  70 S13       29.69R
BOISE          CLOUDY    57  38  48 SW14      29.76R
SPOKANE        LGT RAIN  39  37  92 E5        29.48F
$$

REGIONAL REPORTS...ALBERTA

CITY           SKY/WX    TMP DP  RH WIND       PRES   REMARKS
EDMONTON       CLOUDY    32  27  80 E3        29.59R
LETHBRIDGE     CLOUDY    46  27  46 SE7       29.50F
MEDICINE HAT   PTSUNNY   50  23  34 SW10      29.53F
CARDSTON         N/A     43  28  56 S5          N/A
MILK RIVER       N/A     45  28  53 SE10        N/A
$$

REGIONAL REPORTS...SASKATCHEWAN

CITY           SKY/WX    TMP DP  RH WIND       PRES   REMARKS
SWIFT CURRENT  SUNNY     45  25  45 NW9       29.57F
REGINA         MOSUNNY   41  34  75 W9        29.64R
SASKATOON      CLOUDY    36  30  80 N2        29.63R
CYPRESS HILLS    N/A     41  18  38 SW8         N/A
VAL MARIE        N/A     50  21  32 SW9         N/A
ROCKGLEN         N/A     45  25  45 W13         N/A
ASSINIBOIA       N/A     34  28  80 NW3         N/A
$$




USA.gov is the U.S. government's official web portal to all federal, state and local government web resources and services.